#datint,netname,site,siteID,timestamp,IntT,BattV,AirT2,AirT,AirT_Avg,AirT_Max,AirT_Min,RH_Avg,RH_Max,RH_Min,EA_Avg,Td_Avg,Td_Max,Td_Min,WindS_Smp,WindS_Avg,WindD_Avg,WindD_SD,WindS_Max,ETo,ETr,SoilT4,SoilT8,SoilVWC8,SolarW_Avg,wetstate_Avg,wetT_Avg,Precip_accum,Precip_WPG,Precip_TB
15min,AgWx,beryljct,423,27DEC2020:00:00:00,24.4,12.78,27.3,26.0,24.1,26.0,22.8,58,61,57,0.279,11.6,13.6,10.6,4.143,3.9,202,8.3,4.5,0.00002,0.00004,29.1,31.8,8,0,0,.,6.02,0.00,0.00
15min,AgWx,beryljct,423,27DEC2020:00:15:00,24.9,12.76,29.0,28.0,26.1,28.0,24.6,57,59,54,0.293,13.0,14.5,10.9,1.841,2.3,206,32,4.7,-0.00004,-0.00004,29.0,31.8,9,0,0,.,6.02,0.00,0.00
15min,AgWx,beryljct,423,27DEC2020:00:30:00,25.4,12.75,29.4,28.1,28.1,30.5,25.8,54,58,50,0.279,13.5,15.8,11.7,3.814,3.0,211,8.7,4.1,-0.00000,0.00002,28.9,31.8,8,0,0,.,6.02,0.00,0.00
15min,AgWx,beryljct,423,27DEC2020:00:45:00,25.9,12.75,32.5,30.0,28.1,30.1,26.3,54,56,51,0.304,13.4,15.3,11.8,3.31,3.1,201,8.7,4.0,0.00000,0.00002,28.8,31.8,8,0,0,.,6.02,0.00,0.00
15min,AgWx,beryljct,423,27DEC2020:01:00:00,26.5,12.75,25.3,25.2,28.8,30.5,24.7,52,58,50,0.270,13.6,15.4,11.0,2.411,2.9,209,7.7,3.9,-0.00000,0.00001,28.6,31.7,8,0,0,.,6.03,0.00,0.00
15min,AgWx,beryljct,423,27DEC2020:01:15:00,26.4,12.74,23.9,24.2,25.4,26.2,24.2,58,60,57,0.256,12.8,13.8,11.5,3.924,1.7,323,58,4.9,-0.00008,-0.00009,28.5,31.7,9,0,0,.,6.03,0.00,0.00
15min,AgWx,beryljct,423,27DEC2020:01:30:00,25.6,12.74,22.6,21.7,20.7,24.1,19.9,62,64,58,0.242,9.7,11.4,8.6,5.678,4.2,28,16,6.4,0.00001,0.00003,28.4,31.7,9,0,0,.,6.03,0.00,0.00
15min,AgWx,beryljct,423,27DEC2020:01:45:00,24.7,12.72,19.4,19.1,20.4,21.9,19.1,60,61,58,0.217,8.5,10.1,7.8,2.236,4.4,11,8.9,7.3,0.00003,0.00004,28.3,31.7,9,0,0,.,6.03,0.00,0.00
15min,AgWx,beryljct,423,27DEC2020:02:00:00,23.5,12.71,18.1,17.5,17.6,19.1,17.0,63,65,61,0.213,7.1,7.9,6.6,0,1.2,22,21,3.6,-0.00009,-0.00011,28.2,31.7,9,0,0,.,6.03,0.00,0.00
15min,AgWx,beryljct,423,27DEC2020:02:15:00,22.4,12.71,18.1,17.4,17.4,17.6,17.1,64,64,63,0.212,7.2,7.4,7.0,1.82,0.3,46,18,1.8,-0.00015,-0.00023,28.1,31.6,8,0,0,.,6.03,0.00,0.00
15min,AgWx,beryljct,423,27DEC2020:02:30:00,21.7,12.71,19.2,18.8,18.4,18.8,17.4,62,64,61,0.216,7.6,7.7,7.4,1.03,1.2,277,16,2.5,-0.00009,-0.00012,28.0,31.6,9,0,0,.,6.03,0.00,0.00
15min,AgWx,beryljct,423,27DEC2020:02:45:00,21.3,12.7,18.0,18.0,18.9,19.5,17.9,63,65,61,0.216,8.4,9.7,7.3,4.406,1.5,267,49,4.6,-0.00008,-0.00010,27.9,31.6,8,0,0,.,6.03,0.00,0.00
15min,AgWx,beryljct,423,27DEC2020:03:00:00,21.1,12.7,19.4,17.8,17.6,18.3,17.1,65,66,63,0.218,7.9,8.4,7.2,0,2.2,195,38,4.7,-0.00005,-0.00005,27.8,31.5,8,0,0,.,6.03,0.00,0.00
15min,AgWx,beryljct,423,27DEC2020:03:15:00,20.9,12.68,18.0,17.4,17.5,18.8,16.7,64,66,61,0.219,7.5,8.9,6.4,2.894,2.9,135,24,5.4,-0.00003,-0.00002,27.7,31.5,8,0,0,.,6.03,0.00,0.00
15min,AgWx,beryljct,423,27DEC2020:03:30:00,20.5,12.67,17.6,17.1,16.8,17.5,16.4,65,66,64,0.212,7.2,7.9,6.8,2.17,2.5,196,9.8,3.7,-0.00004,-0.00004,27.6,31.5,9,0,0,.,6.03,0.00,0.00
15min,AgWx,beryljct,423,27DEC2020:03:45:00,20.1,12.67,16.4,16.5,17.5,18.6,16.5,65,67,64,0.214,7.7,8.6,7.1,1.052,2.2,198,13,3.4,-0.00005,-0.00005,27.5,31.4,8,0,0,.,6.03,0.00,0.00
15min,AgWx,beryljct,423,27DEC2020:04:00:00,19.8,12.65,19.8,20.2,18.5,21.0,16.1,69,71,64,0.257,9.9,12.6,7.3,1.447,1.1,209,20,2.5,-0.00011,-0.00014,27.4,31.4,9,0,0,.,6.03,0.00,0.00
15min,AgWx,beryljct,423,27DEC2020:04:15:00,19.7,12.65,17.3,18.3,19.0,20.3,17.3,69,72,67,0.244,10.5,11.9,8.7,0.789,0.9,250,35,1.9,-0.00012,-0.00016,27.3,31.4,8,0,0,.,6.03,0.00,0.00
15min,AgWx,beryljct,423,27DEC2020:04:30:00,19.5,12.64,16.6,16.4,18.8,21.0,16.4,67,71,63,0.211,9.5,12.2,6.9,0,1.4,324,6.4,2.6,-0.00009,-0.00011,27.2,31.4,8,0,0,.,6.03,0.00,0.00
15min,AgWx,beryljct,423,27DEC2020:04:45:00,19.4,12.64,16.6,15.7,17.0,18.4,15.4,67,69,65,0.208,8.1,9.4,6.2,3.595,1.6,286,63,4.6,-0.00008,-0.00009,27.1,31.3,8,0,0,.,6.03,0.00,0.00
15min,AgWx,beryljct,423,27DEC2020:05:00:00,19.1,12.63,17.2,16.4,16.6,17.8,15.8,66,69,63,0.203,7.4,8.7,6.2,4.187,2.9,186,4.8,4.2,-0.00003,-0.00002,27.0,31.3,8,0,0,.,6.03,0.00,0.00
15min,AgWx,beryljct,423,27DEC2020:05:15:00,18.8,12.62,17.4,17.0,16.7,17.3,15.8,67,70,64,0.227,7.6,8.8,6.5,2.696,3.0,188,6.2,4.4,-0.00003,-0.00002,26.9,31.3,8,0,0,.,6.04,0.00,0.00
15min,AgWx,beryljct,423,27DEC2020:05:30:00,18.9,12.6,21.6,20.7,18.7,21.9,16.6,69,72,65,0.256,10.3,12.9,8.0,1.447,2.1,216,15,2.6,-0.00006,-0.00007,26.8,31.2,8,0,0,.,6.03,0.00,0.00
15min,AgWx,beryljct,423,27DEC2020:05:45:00,19.1,12.59,16.7,15.7,17.4,21.5,15.5,66,68,65,0.205,8.0,12.4,6.1,3.727,2.8,305,29,3.8,-0.00003,-0.00003,26.7,31.2,8,0,0,.,6.04,0.00,0.00
15min,AgWx,beryljct,423,27DEC2020:06:00:00,19.0,12.59,19.8,18.7,17.3,19.0,15.8,67,70,64,0.237,8.1,10.8,6.7,1.359,2.2,299,19,3.9,-0.00005,-0.00006,26.6,31.1,8,0,0,.,6.04,0.00,0.00
15min,AgWx,beryljct,423,27DEC2020:06:15:00,19.3,12.58,22.5,23.2,21.8,23.9,18.8,67,70,65,0.279,12.6,14.5,9.9,2.718,2.3,257,9.0,2.7,-0.00006,-0.00006,26.5,31.1,8,0,0,.,6.03,0.00,0.00
15min,AgWx,beryljct,423,27DEC2020:06:30:00,20.0,12.57,20.0,21.3,23.6,26.0,21.3,65,69,60,0.261,13.6,15.1,11.9,1.184,2.0,293,5.8,2.7,-0.00007,-0.00008,26.4,31.1,8,0,0,.,6.03,0.00,0.00
15min,AgWx,beryljct,423,27DEC2020:06:45:00,20.4,12.56,21.3,21.4,20.9,22.2,20.0,66,69,63,0.269,11.4,12.8,10.3,2.696,2.6,314,12,3.4,-0.00004,-0.00004,26.4,31.0,8,0,0,.,6.03,0.00,0.00
15min,AgWx,beryljct,423,27DEC2020:07:00:00,20.8,12.55,23.0,22.6,22.7,23.8,21.1,67,69,65,0.271,13.2,14.1,12.1,2.499,3.4,312,6.5,4.6,-0.00002,-0.00001,26.3,31.0,8,0,0,.,6.03,0.00,0.00
15min,AgWx,beryljct,423,27DEC2020:07:15:00,21.2,12.54,25.9,24.5,23.3,24.5,22.0,66,68,64,0.292,13.6,14.6,12.0,1.469,2.4,311,7.7,3.1,0.00011,0.00019,26.3,30.9,8,0,0,.,6.03,0.00,0.00
15min,AgWx,beryljct,423,27DEC2020:07:30:00,21.6,12.52,21.1,21.0,23.3,25.0,20.7,64,66,61,0.255,13.0,14.7,10.4,2.784,2.5,331,13,4.0,0.00012,0.00021,26.2,30.9,8,0,0,.,6.04,0.00,0.00
15min,AgWx,beryljct,423,27DEC2020:07:45:00,21.6,12.54,23.8,22.7,20.8,22.7,20.0,68,71,65,0.287,12.1,14.0,10.4,2.762,2.0,306,2.1,2.9,0.00008,0.00014,26.2,30.9,8,1,0,.,6.03,0.00,0.00
15min,AgWx,beryljct,423,27DEC2020:08:00:00,21.7,12.53,22.3,21.9,22.8,24.1,21.5,66,69,64,0.268,13.3,14.6,11.7,4.231,4.0,319,4.7,5.8,0.00017,0.00029,26.1,30.8,8,2,0,.,6.03,0.00,0.00
15min,AgWx,beryljct,423,27DEC2020:08:15:00,22.1,12.52,21.6,21.4,22.2,22.8,21.4,66,68,65,0.259,12.7,13.7,11.7,1.14,2.6,339,14,4.3,0.00014,0.00023,26.1,30.8,8,7,0,.,6.03,0.00,0.00
15min,AgWx,beryljct,423,27DEC2020:08:30:00,22.4,12.54,24.3,23.2,22.0,23.2,21.4,66,67,65,0.283,12.4,13.7,11.7,5.086,2.9,335,10,5.1,0.00018,0.00027,26.1,30.8,8,18,0,.,6.03,0.00,0.00
15min,AgWx,beryljct,423,27DEC2020:08:45:00,23.0,12.55,22.3,22.6,23.6,24.4,22.6,65,67,63,0.267,13.5,14.6,12.4,4.604,3.3,325,48,4.8,0.00025,0.00036,26.1,30.7,8,32,0,.,6.03,0.00,0.00
15min,AgWx,beryljct,423,27DEC2020:09:00:00,23.5,12.63,24.8,24.0,23.2,24.0,21.8,65,68,64,0.283,13.2,14.5,11.6,2.674,2.0,338,71,4.2,0.00026,0.00034,26.1,30.7,8,50,0,.,6.03,0.00,0.00
15min,AgWx,beryljct,423,27DEC2020:09:15:00,24.1,12.59,24.8,24.1,24.0,24.3,23.8,63,64,63,0.278,13.4,13.9,13.1,2.214,1.6,357,12,2.7,0.00028,0.00035,26.1,30.6,8,55,0,.,6.03,0.00,0.00
15min,AgWx,beryljct,423,27DEC2020:09:30:00,24.6,12.61,25.6,25.3,24.7,25.3,24.2,63,63,62,0.287,13.7,14.2,13.2,2.609,1.7,0.3,27,3.2,0.00031,0.00040,26.1,30.6,9,64,0,.,6.03,0.00,0.00
15min,AgWx,beryljct,423,27DEC2020:09:45:00,25.3,12.63,26.9,26.4,25.8,26.5,25.1,62,62,62,0.301,14.6,15.3,13.9,1.6,1.6,323,7.2,2.6,0.00036,0.00044,26.2,30.6,9,74,0,.,6.03,0.00,0.00
15min,AgWx,beryljct,423,27DEC2020:10:00:00,26.0,12.68,27.4,27.0,26.7,27.0,26.4,62,62,61,0.306,15.3,15.6,15.0,1.337,1.4,331,13,2.3,0.00035,0.00043,26.2,30.6,8,72,0,.,6.03,0.00,0.00
15min,AgWx,beryljct,423,27DEC2020:10:15:00,26.8,12.7,27.6,27.3,27.1,27.4,27.0,61,62,61,0.310,15.6,15.9,15.4,0.702,1.0,330,3.0,2.0,0.00040,0.00047,26.3,30.5,8,88,0,.,6.03,0.00,0.00
15min,AgWx,beryljct,423,27DEC2020:10:30:00,27.5,12.75,28.2,27.8,27.5,27.8,27.3,61,62,61,0.316,16.0,16.3,15.8,0.373,1.2,302,18,1.9,0.00040,0.00048,26.4,30.5,9,87,0,.,6.03,0.00,0.00
15min,AgWx,beryljct,423,27DEC2020:10:45:00,28.2,12.87,28.5,28.5,28.1,28.6,27.9,61,61,61,0.320,16.4,16.8,16.2,1.82,0.5,51,43,2.5,0.00056,0.00062,26.5,30.5,9,136,0,.,6.03,0.00,0.00
15min,AgWx,beryljct,423,27DEC2020:11:00:00,29.4,13.01,29.6,29.2,28.8,29.2,28.4,60,61,59,0.324,16.7,17.1,16.4,0.68,1.2,48,19,2.7,0.00072,0.00083,26.6,30.4,9,181,0,.,6.03,0.00,0.00
15min,AgWx,beryljct,423,27DEC2020:11:15:00,30.7,13.13,31.0,30.0,29.6,30.0,29.1,59,59,58,0.329,16.9,17.2,16.6,2.521,1.2,349,19,3.0,0.00078,0.00089,26.8,30.4,8,194,0,.,6.03,0.00,0.00
15min,AgWx,beryljct,423,27DEC2020:11:30:00,31.6,13.18,31.8,31.2,30.5,31.4,30.1,57,58,56,0.331,17.3,17.8,17.0,0.723,1.5,20,27,3.7,0.00071,0.00084,26.9,30.4,9,161,0,.,6.03,0.00,0.00
15min,AgWx,beryljct,423,27DEC2020:11:45:00,32.5,13.18,31.8,31.5,31.6,31.9,31.2,55,56,55,0.330,17.4,17.9,17.1,2.565,2.6,18,19,4.9,0.00077,0.00095,27.2,30.3,8,159,0,.,6.03,0.00,0.00
15min,AgWx,beryljct,423,27DEC2020:12:00:00,33.3,13.26,32.8,32.1,31.8,32.1,31.5,55,55,55,0.336,17.5,17.7,17.3,4.823,3.0,354,14,5.2,0.00086,0.00107,27.4,30.3,8,186,0,.,6.03,0.00,0.00
15min,AgWx,beryljct,423,27DEC2020:12:15:00,34.1,13.33,32.9,32.9,32.5,33.2,32.1,54,55,53,0.339,17.8,18.3,17.6,1.315,2.3,21,21,5.3,0.00086,0.00104,27.6,30.3,8,189,0,.,6.02,0.00,0.00
15min,AgWx,beryljct,423,27DEC2020:12:30:00,35.1,13.51,35.0,33.6,33.2,33.6,32.7,53,54,52,0.342,17.9,18.3,17.6,2.368,2.6,73,28,5.0,0.00102,0.00123,27.8,30.3,8,237,0,.,6.02,0.00,0.00
15min,AgWx,beryljct,423,27DEC2020:12:45:00,36.3,13.73,34.8,34.5,34.2,34.9,33.5,52,53,51,0.345,18.2,18.7,17.8,3.157,2.2,95,36,4.9,0.00119,0.00140,28.1,30.3,8,293,0,.,6.03,0.00,0.00
15min,AgWx,beryljct,423,27DEC2020:13:00:00,37.4,13.53,34.6,35.0,34.4,35.0,34.2,51,52,51,0.352,18.3,18.8,18.0,3.201,2.3,122,33,5.3,0.00103,0.00123,28.3,30.3,8,238,0,.,6.02,0.00,0.00
15min,AgWx,beryljct,423,27DEC2020:13:15:00,37.9,13.46,35.4,35.2,34.9,35.4,34.6,51,51,50,0.353,18.5,19.0,18.2,2.411,1.9,130,40,3.8,0.00094,0.00112,28.6,30.3,8,213,0,.,6.02,0.00,0.00
15min,AgWx,beryljct,423,27DEC2020:13:30:00,38.2,13.4,35.8,35.6,35.3,35.6,35.0,50,51,50,0.351,18.6,19.0,18.3,3.398,2.5,119,47,5.6,0.00089,0.00110,28.9,30.3,8,188,0,.,6.02,0.00,0.00
15min,AgWx,beryljct,423,27DEC2020:13:45:00,38.5,13.4,36.9,36.5,35.8,36.7,35.3,50,50,48,0.353,18.7,19.5,18.4,1.776,1.5,138,23,3.5,0.00084,0.00099,29.2,30.3,8,191,0,.,6.02,0.00,0.00
15min,AgWx,beryljct,423,27DEC2020:14:00:00,39.0,13.38,37.2,37.4,36.8,37.5,36.3,48,49,47,0.361,19.0,19.5,18.7,3.508,0.9,137,67,3.5,0.00082,0.00094,29.6,30.3,8,201,0,.,6.02,0.00,0.00
15min,AgWx,beryljct,423,27DEC2020:14:15:00,39.4,13.29,38.1,37.6,37.3,37.6,36.9,47,48,47,0.359,19.1,19.5,18.8,3.551,3.3,69,16,5.5,0.00082,0.00109,29.9,30.4,8,154,0,.,6.02,0.00,0.00
15min,AgWx,beryljct,423,27DEC2020:14:30:00,39.5,13.22,38.2,38.0,37.7,38.1,37.4,46,47,45,0.352,18.9,19.4,18.6,8.31,5.9,36,22,9.0,0.00091,0.00132,30.1,30.4,8,133,0,.,6.02,0.00,0.00
15min,AgWx,beryljct,423,27DEC2020:14:45:00,39.6,13.21,38.7,38.2,38.1,38.5,37.9,45,46,45,0.353,18.8,19.2,18.6,8.29,7.8,43,11,12.3,0.00099,0.00150,30.4,30.4,8,139,0,.,6.02,0.00,0.00
15min,AgWx,beryljct,423,27DEC2020:15:00:00,39.5,13.19,38.1,37.6,37.9,38.2,37.6,45,46,45,0.349,18.6,18.9,18.3,9.21,9.2,44,9.1,12.0,0.00097,0.00153,30.7,30.5,8,104,0,.,6.02,0.00,0.00
15min,AgWx,beryljct,423,27DEC2020:15:15:00,39.4,13.16,37.8,37.5,37.6,37.8,37.4,46,46,46,0.351,18.7,18.8,18.5,8.24,10.1,45,9.9,14.0,0.00093,0.00150,30.9,30.5,8,99,0,.,6.02,0.00,0.00
15min,AgWx,beryljct,423,27DEC2020:15:30:00,39.0,13.17,37.5,37.3,37.4,37.6,37.3,46,47,46,0.353,18.8,19.0,18.6,11.86,10.2,44,7.8,13.8,0.00083,0.00140,31.1,30.6,9,88,0,.,6.02,0.00,0.00
15min,AgWx,beryljct,423,27DEC2020:15:45:00,38.8,13.16,37.2,37.0,37.1,37.3,37.0,47,48,47,0.355,18.9,19.1,18.7,10.63,11.4,40,6.9,14.4,0.00074,0.00133,31.2,30.6,9,90,0,.,6.02,0.00,0.00
15min,AgWx,beryljct,423,27DEC2020:16:00:00,38.5,13.11,36.9,36.7,36.8,37.0,36.6,48,49,48,0.358,19.0,19.2,18.9,12.04,11.7,41,7.4,15.9,0.00068,0.00127,31.4,30.7,9,75,0,.,6.02,0.00,0.00
15min,AgWx,beryljct,423,27DEC2020:16:15:00,38.3,13.05,36.4,36.2,36.5,36.7,36.2,49,49,49,0.358,19.1,19.2,19.0,10,11.8,43,8.7,16.2,0.00062,0.00119,31.5,30.7,8,56,0,.,6.01,0.00,0.00
15min,AgWx,beryljct,423,27DEC2020:16:30:00,37.9,12.98,36.1,35.7,36.0,36.2,35.7,50,50,49,0.357,19.1,19.2,19.0,12.85,11.6,44,8.2,15.4,0.00036,0.00041,31.6,30.8,9,44,0,.,6.02,0.00,0.00
15min,AgWx,beryljct,423,27DEC2020:16:45:00,37.5,12.94,35.7,35.5,35.6,35.9,35.5,51,51,50,0.358,19.2,19.2,19.0,7.914,11.1,41,7.3,15.6,0.00033,0.00039,31.7,30.9,8,28,0,.,6.01,0.00,0.00
15min,AgWx,beryljct,423,27DEC2020:17:00:00,37.1,12.91,35.4,35.2,35.3,35.5,35.1,52,52,51,0.361,19.3,19.4,19.2,10.41,10.4,43,7.3,13.4,0.00030,0.00036,31.7,30.9,9,15,0,.,6.02,0.00,0.00
15min,AgWx,beryljct,423,27DEC2020:17:15:00,36.7,12.87,34.9,34.8,34.9,35.1,34.8,52,52,52,0.356,19.1,19.2,19.0,6.533,9.5,44,7.3,12.8,0.00028,0.00033,31.8,31.0,8,6,0,.,6.02,0.00,0.00
15min,AgWx,beryljct,423,27DEC2020:17:30:00,36.4,12.84,34.9,34.6,34.7,34.9,34.6,52,52,52,0.355,19.0,19.1,18.9,8.57,8.8,46,7.5,12.1,0.00026,0.00032,31.8,31.1,9,2,0,.,6.02,0.00,0.00
15min,AgWx,beryljct,423,27DEC2020:17:45:00,36.2,12.82,34.4,34.3,34.5,34.7,34.3,53,53,52,0.354,19.0,19.1,18.9,6.445,9.4,50,7.9,13.1,0.00027,0.00032,31.8,31.1,8,1,0,.,6.01,0.00,0.00
15min,AgWx,beryljct,423,27DEC2020:18:00:00,35.9,12.8,34.5,34.2,34.2,34.4,34.1,53,53,53,0.353,18.9,19.0,18.7,7.87,9.0,49,8.1,12.8,0.00026,0.00031,31.8,31.2,9,0,0,.,6.02,0.00,0.00
15min,AgWx,beryljct,423,27DEC2020:18:15:00,35.7,12.76,34.4,34.0,34.1,34.2,33.9,53,53,53,0.352,18.8,18.9,18.7,8.83,8.2,57,9.2,12.2,0.00024,0.00030,31.8,31.3,9,0,0,.,6.02,0.00,0.00
15min,AgWx,beryljct,423,27DEC2020:18:30:00,35.4,12.74,34.1,33.9,34.0,34.2,33.9,53,54,53,0.352,18.8,18.9,18.6,9.49,7.4,53,12,10.3,0.00023,0.00028,31.8,31.3,9,0,0,.,6.02,0.00,0.00
15min,AgWx,beryljct,423,27DEC2020:18:45:00,35.2,12.73,34.0,33.6,33.8,34.0,33.6,54,54,53,0.354,18.8,18.9,18.6,6.949,6.1,75,29,10.9,0.00020,0.00026,31.8,31.4,8,0,0,.,6.01,0.00,0.00
15min,AgWx,beryljct,423,27DEC2020:19:00:00,34.9,12.69,33.5,33.2,33.4,33.6,33.2,55,55,54,0.355,18.9,19.0,18.8,4.779,3.7,81,10,6.1,0.00014,0.00019,31.7,31.4,9,0,0,.,6.01,0.00,0.00
15min,AgWx,beryljct,423,27DEC2020:19:15:00,34.7,12.68,33.1,32.9,33.1,33.2,32.9,56,56,55,0.357,19.0,19.2,18.9,3.661,2.7,75,11,4.1,0.00009,0.00014,31.7,31.5,8,0,0,.,6.02,0.00,0.00
15min,AgWx,beryljct,423,27DEC2020:19:30:00,34.4,12.65,32.6,32.5,32.7,32.9,32.5,57,58,56,0.363,19.3,19.5,19.1,1.863,2.7,59,22,3.9,0.00009,0.00013,31.7,31.6,9,0,0,.,6.02,0.00,0.00
15min,AgWx,beryljct,423,27DEC2020:19:45:00,34.1,12.64,32.9,32.5,32.4,32.6,32.3,59,59,58,0.368,19.6,19.9,19.4,5.59,2.7,22,21,6.9,0.00008,0.00012,31.7,31.6,8,0,0,.,6.01,0.00,0.00
15min,AgWx,beryljct,423,27DEC2020:20:00:00,33.8,12.62,32.8,32.4,32.3,32.6,32.1,59,60,59,0.366,19.7,20.1,19.4,5.678,6.2,50,9.8,9.4,0.00017,0.00021,31.6,31.7,9,0,0,.,6.01,0.00,0.00
15min,AgWx,beryljct,423,27DEC2020:20:15:00,33.6,12.62,31.8,31.6,32.1,32.4,31.6,59,60,59,0.360,19.6,19.7,19.3,3.135,4.3,78,16,6.6,0.00013,0.00017,31.6,31.7,8,0,0,.,6.02,0.00,0.00
15min,AgWx,beryljct,423,27DEC2020:20:30:00,33.4,12.6,31.7,31.3,31.4,31.7,31.2,60,61,60,0.359,19.3,19.4,19.1,3.595,3.1,67,23,5.3,0.00009,0.00013,31.5,31.8,8,0,0,.,6.02,0.00,0.00
15min,AgWx,beryljct,423,27DEC2020:20:45:00,33.1,12.6,31.4,31.2,31.2,31.4,31.0,61,61,61,0.362,19.2,19.4,19.1,2.587,3.3,43,10,4.7,0.00010,0.00013,31.5,31.8,8,0,0,.,6.02,0.00,0.00
15min,AgWx,beryljct,423,27DEC2020:21:00:00,32.9,12.59,31.5,30.8,31.1,31.5,30.6,62,63,61,0.362,19.4,19.6,19.3,0.526,2.5,351,24,5.0,0.00007,0.00010,31.4,31.8,8,0,0,.,6.02,0.00,0.00
15min,AgWx,beryljct,423,27DEC2020:21:15:00,32.6,12.59,31.0,30.7,30.8,31.0,30.7,62,62,62,0.359,19.3,19.5,19.1,3.223,1.1,29,21,3.3,0.00000,0.00001,31.4,31.8,8,0,0,.,6.02,0.00,0.00
15min,AgWx,beryljct,423,27DEC2020:21:30:00,32.3,12.59,31.1,30.8,30.6,30.8,30.4,62,63,62,0.360,19.3,19.4,19.2,1.381,1.4,21,13,3.6,0.00002,0.00004,31.4,31.9,8,0,0,.,6.02,0.00,0.00
15min,AgWx,beryljct,423,27DEC2020:21:45:00,31.9,12.57,29.7,29.5,30.3,30.9,29.4,63,64,62,0.354,19.1,19.3,18.7,2.762,1.8,346,51,4.3,0.00003,0.00006,31.3,32.0,8,0,0,.,6.02,0.00,0.00
15min,AgWx,beryljct,423,27DEC2020:22:00:00,31.4,12.56,30.7,30.1,29.5,30.2,28.6,64,65,62,0.351,18.7,19.1,18.0,2.674,3.8,339,41,5.5,0.00009,0.00013,31.3,32.0,8,0,0,.,6.02,0.00,0.00
15min,AgWx,beryljct,423,27DEC2020:22:15:00,31.0,12.56,30.1,29.8,29.6,30.2,29.3,63,64,62,0.356,18.7,19.0,18.4,2.981,3.8,28,11,5.5,0.00010,0.00013,31.2,32.0,8,0,0,.,6.02,0.00,0.00
15min,AgWx,beryljct,423,27DEC2020:22:30:00,30.6,12.56,29.5,29.1,29.4,29.8,29.1,64,64,63,0.348,18.7,18.9,18.5,1.491,1.5,5.6,39,3.2,0.00002,0.00004,31.2,32.0,8,0,0,.,6.02,0.00,0.00
15min,AgWx,beryljct,423,27DEC2020:22:45:00,30.3,12.55,29.0,28.3,28.5,29.3,27.7,65,66,64,0.343,18.2,18.9,17.6,3.99,3.5,336,15,6.2,0.00008,0.00011,31.1,32.0,8,0,0,.,6.02,0.00,0.00
15min,AgWx,beryljct,423,27DEC2020:23:00:00,30.0,12.56,28.3,27.9,28.2,28.7,27.8,65,66,64,0.338,17.9,18.2,17.6,2.368,2.5,9.1,22,4.4,0.00005,0.00008,31.0,32.1,9,0,0,.,6.02,0.00,0.00
15min,AgWx,beryljct,423,27DEC2020:23:15:00,29.3,12.53,27.7,27.6,27.6,28.0,27.5,66,66,65,0.336,17.7,17.9,17.5,2.894,2.3,23,7.8,4.0,0.00004,0.00007,30.9,32.1,8,0,0,.,6.02,0.00,0.00
15min,AgWx,beryljct,423,27DEC2020:23:30:00,28.5,12.55,27.6,27.4,27.4,27.6,27.2,67,69,66,0.350,18.0,18.6,17.5,3.442,1.6,29,17,4.7,0.00002,0.00003,30.9,32.1,8,0,0,.,6.02,0.00,0.00
15min,AgWx,beryljct,423,27DEC2020:23:45:00,28.0,12.54,27.1,26.4,26.7,27.4,26.3,71,72,69,0.351,18.6,18.9,18.3,4.231,3.4,48,9.2,4.5,0.00005,0.00008,30.8,32.1,8,0,0,.,6.02,0.00,0.00
15min,AgWx,bigpiney,439,27DEC2020:00:00:00,17.1,12.62,13.7,15.8,16.0,17.0,14.6,86,88,84,0.272,12.5,13.9,10.7,2.981,1.3,288,46,3.0,-0.00002,-0.00003,29.6,31.9,15,0,0,0.0,0.01,0.00,0.00
15min,AgWx,bigpiney,439,27DEC2020:00:15:00,16.7,12.6,16.0,14.8,15.3,17.8,13.6,87,90,83,0.249,12.0,14.8,10.0,5.437,4.1,234,11,5.6,0.00001,0.00001,29.5,31.9,15,0,0,0.0,0.01,0.00,0.00
15min,AgWx,bigpiney,439,27DEC2020:00:30:00,16.2,12.6,16.4,16.7,15.6,18.6,12.4,86,90,79,0.275,12.0,15.7,7.9,0.811,2.8,224,36,5.5,-0.00000,0.00000,29.5,31.9,15,0,0,0.0,0.01,0.00,0.00
15min,AgWx,bigpiney,439,27DEC2020:00:45:00,15.8,12.6,16.5,15.8,15.1,16.7,13.7,85,88,81,0.271,11.5,13.4,9.2,0.658,2.6,355,53,6.6,-0.00000,-0.00000,29.5,32.0,15,0,0,0.0,0.01,0.00,0.00
15min,AgWx,bigpiney,439,27DEC2020:01:00:00,15.3,12.59,17.1,17.3,15.5,17.6,13.8,87,90,84,0.281,12.3,14.6,9.7,3.025,2.0,322,23,5.2,-0.00001,-0.00001,29.5,32.0,15,0,0,0.0,0.01,0.00,0.00
15min,AgWx,bigpiney,439,27DEC2020:01:15:00,15.0,12.57,16.5,14.8,15.2,17.2,12.8,85,89,82,0.263,11.5,13.4,8.5,0.877,1.7,279,44,5.4,-0.00001,-0.00001,29.5,31.9,15,0,0,0.0,0.01,0.00,0.00
15min,AgWx,bigpiney,439,27DEC2020:01:30:00,14.8,12.56,14.8,13.4,14.6,17.1,12.2,86,89,81,0.245,11.1,14.1,7.9,3.157,1.0,269,62,4.7,-0.00003,-0.00003,29.4,31.9,15,0,0,0.0,0.01,0.00,0.00
15min,AgWx,bigpiney,439,27DEC2020:01:45:00,14.6,12.56,11.5,11.4,12.8,13.8,11.4,88,89,86,0.221,9.8,11.1,8.2,1.885,2.3,3.9,62,6.2,-0.00001,-0.00001,29.4,31.9,15,0,0,0.0,0.01,0.00,0.00
15min,AgWx,bigpiney,439,27DEC2020:02:00:00,14.4,12.54,15.5,13.6,12.4,13.6,11.3,89,91,86,0.257,9.7,11.5,8.1,0,1.5,309,37,5.4,-0.00002,-0.00002,29.4,31.9,15,0,0,0.0,0.01,0.00,0.00
15min,AgWx,bigpiney,439,27DEC2020:02:15:00,14.4,12.54,12.8,12.8,13.1,14.5,12.2,88,91,87,0.239,10.3,12.4,9.1,1.491,1.5,246,18,3.2,-0.00002,-0.00002,29.3,32.0,15,0,0,0.0,0.01,0.00,0.00
15min,AgWx,bigpiney,439,27DEC2020:02:30:00,14.4,12.52,14.7,13.8,14.0,15.0,12.8,89,91,86,0.251,11.3,12.6,9.5,0,0.7,255,22,5.2,-0.00003,-0.00004,29.3,32.0,15,0,0,0.0,0.01,0.00,0.00
15min,AgWx,bigpiney,439,27DEC2020:02:45:00,14.2,12.51,14.7,14.3,14.4,14.7,13.8,89,90,88,0.259,11.8,12.2,11.0,0,0.9,169,13,2.5,-0.00003,-0.00004,29.3,32.0,15,0,0,0.0,0.01,0.00,0.00
15min,AgWx,bigpiney,439,27DEC2020:03:00:00,14.2,12.51,13.4,13.7,14.8,15.0,13.7,90,90,88,0.249,12.4,12.6,10.8,4.319,1.5,119,33,4.4,-0.00002,-0.00003,29.3,31.9,15,0,0,0.0,0.01,0.00,0.00
15min,AgWx,bigpiney,439,27DEC2020:03:15:00,14.2,12.5,14.4,13.5,12.6,13.5,11.6,89,91,88,0.255,10.0,11.4,8.8,3.069,2.5,184,34,4.4,-0.00001,-0.00001,29.2,32.0,15,0,0,0.0,0.01,0.00,0.00
15min,AgWx,bigpiney,439,27DEC2020:03:30:00,14.1,12.49,11.5,13.6,13.9,14.4,13.4,90,91,89,0.252,11.6,12.3,10.8,0,2.2,230,23,3.8,-0.00001,-0.00001,29.2,31.9,15,0,0,0.0,0.01,0.00,0.00
15min,AgWx,bigpiney,439,27DEC2020:03:45:00,14.0,12.49,14.5,13.5,12.9,14.2,11.9,90,92,87,0.254,10.4,12.2,8.7,3.047,1.7,318,25,5.0,-0.00002,-0.00002,29.2,32.0,15,0,0,0.0,0.01,0.00,0.00
15min,AgWx,bigpiney,439,27DEC2020:04:00:00,14.0,12.48,14.3,13.4,13.7,15.1,12.9,90,92,88,0.251,11.4,13.2,10.2,0.044,1.6,301,39,5.2,-0.00002,-0.00002,29.2,32.0,14,0,0,0.0,0.01,0.00,0.00
15min,AgWx,bigpiney,439,27DEC2020:04:15:00,14.0,12.46,12.8,12.6,12.5,13.4,11.5,90,91,87,0.243,10.0,11.0,8.5,3.529,2.2,5.3,22,5.6,-0.00001,-0.00001,29.1,31.9,14,0,0,0.0,0.01,0.00,0.00
15min,AgWx,bigpiney,439,27DEC2020:04:30:00,14.0,12.46,12.8,12.4,12.4,13.1,11.6,90,91,89,0.238,10.0,10.8,9.0,4.538,2.8,298,24,4.6,-0.00001,-0.00001,29.1,31.9,14,0,0,0.0,0.01,0.00,0.00
15min,AgWx,bigpiney,439,27DEC2020:04:45:00,14.0,12.46,13.6,13.2,12.6,13.2,12.2,89,90,88,0.249,10.0,10.9,9.4,2.587,2.5,273,12,4.2,-0.00001,-0.00001,29.1,32.0,14,0,0,0.0,0.01,0.00,0.00
15min,AgWx,bigpiney,439,27DEC2020:05:00:00,14.0,12.44,13.6,14.3,13.7,15.0,12.3,90,91,88,0.257,11.2,12.8,9.4,3.091,2.7,269,17,4.5,-0.00001,-0.00001,29.0,31.9,14,0,0,0.0,0.01,0.00,0.00
15min,AgWx,bigpiney,439,27DEC2020:05:15:00,14.1,12.44,14.6,13.9,14.6,15.6,13.4,88,91,85,0.245,11.7,13.0,9.9,3.705,3.2,253,22,5.5,-0.00000,-0.00000,29.0,31.9,14,0,0,0.0,0.01,0.00,0.00
15min,AgWx,bigpiney,439,27DEC2020:05:30:00,14.1,12.43,9.9,10.4,13.5,16.5,10.4,86,90,85,0.209,10.2,13.9,7.0,5.634,4.1,200,10,6.0,0.00001,0.00001,29.0,31.9,14,0,0,0.0,0.01,0.00,0.00
15min,AgWx,bigpiney,439,27DEC2020:05:45:00,13.6,12.43,10.2,9.6,9.3,10.5,8.2,87,89,86,0.210,6.3,7.4,5.1,5.919,5.4,211,5.8,6.3,0.00001,0.00001,29.0,31.9,14,0,0,0.0,0.01,0.00,0.00
15min,AgWx,bigpiney,439,27DEC2020:06:00:00,12.8,12.42,11.0,10.6,10.1,11.7,9.1,89,90,87,0.214,7.4,9.3,6.2,3.201,4.7,228,16,6.6,0.00001,0.00001,29.0,31.9,14,0,0,0.0,0.01,0.00,0.00
15min,AgWx,bigpiney,439,27DEC2020:06:15:00,12.3,12.41,12.0,10.8,10.7,11.4,10.1,88,89,86,0.218,7.7,8.8,7.0,2.806,1.9,276,45,4.1,-0.00001,-0.00001,28.9,31.9,14,0,0,0.0,0.01,0.00,0.00
15min,AgWx,bigpiney,439,27DEC2020:06:30:00,11.9,12.41,10.4,9.7,10.8,12.1,8.6,88,89,83,0.207,7.8,9.5,4.5,3.727,1.4,291,34,3.7,-0.00002,-0.00002,28.9,31.9,14,0,0,0.0,0.01,0.00,0.00
15min,AgWx,bigpiney,439,27DEC2020:06:45:00,11.4,12.41,12.5,11.6,10.4,11.6,9.6,88,90,87,0.230,7.6,9.1,6.4,2.565,2.5,241,72,8.1,-0.00001,-0.00001,28.9,31.9,14,0,0,0.0,0.01,0.00,0.00
15min,AgWx,bigpiney,439,27DEC2020:07:00:00,11.2,12.39,12.5,10.4,11.4,12.0,10.4,88,89,86,0.210,8.5,9.4,7.0,0,1.9,299,33,4.6,-0.00001,-0.00001,28.8,31.9,14,0,0,0.0,0.01,0.00,0.00
15min,AgWx,bigpiney,439,27DEC2020:07:15:00,11.1,12.4,10.3,10.9,11.1,12.1,9.8,88,89,85,0.214,8.2,9.5,6.2,4.428,1.2,217,40,4.4,-0.00002,-0.00003,28.8,32.0,14,0,0,0.0,0.01,0.00,0.00
15min,AgWx,bigpiney,439,27DEC2020:07:30:00,11.1,12.39,11.3,11.7,11.9,13.1,10.6,88,89,84,0.224,9.0,10.4,6.9,0,2.8,232,49,6.4,-0.00000,-0.00000,28.8,32.0,14,0,0,0.0,0.01,0.00,0.00
15min,AgWx,bigpiney,439,27DEC2020:07:45:00,11.2,12.41,10.8,11.0,11.7,12.9,11.0,87,90,85,0.212,8.6,10.4,7.3,4.319,1.7,250,59,6.2,-0.00001,-0.00002,28.7,31.9,14,1,0,0.0,0.01,0.00,0.00
15min,AgWx,bigpiney,439,27DEC2020:08:00:00,11.4,13.68,10.7,11.5,13.2,14.7,10.9,86,89,81,0.213,9.9,11.4,7.1,1.907,3.4,248,8.9,5.4,0.00001,0.00001,28.7,31.9,14,6,0,0.0,0.01,0.00,0.00
15min,AgWx,bigpiney,439,27DEC2020:08:15:00,11.7,13.79,11.8,11.5,10.8,11.5,10.2,85,87,83,0.222,7.3,8.4,6.6,2.806,1.5,242,36,4.5,-0.00013,-0.00013,28.7,31.8,14,34,0,0.0,0.01,0.00,0.00
15min,AgWx,bigpiney,439,27DEC2020:08:30:00,12.2,14.99,19.2,17.1,13.4,17.1,11.4,86,88,83,0.271,10.0,12.8,8.0,3.442,4.3,248,10,5.7,-0.00006,-0.00003,28.7,31.9,14,48,0,0.0,0.01,0.00,0.00